Weather in Kê Gà

Vietnam     10°42′36″N   107°59′43″E
temp.,
°C
wind,
m/s
gust,
m/s
humid.,
%
clouds,
%
prec.,
mm/h
press.,
hPa
HPBL,
m
22 may, sun
sun2201:00+27w4585100 2.3 1006243
04:00+26w4686100 0.6 1005225
07:00+27w4680100 1.7 1006327
10:00+30wsw81066100 0.3 10061213
13:00+30wsw9107098 0.9 10041085
16:00+29wsw787695 1.6 1003932
19:00+27w468298 3.6 1005366
22:00+27w5985100 1.1 1007448
23 may, mon
mon2301:00+26w5983100 1.4 1006489
04:00+26w61185100 0.2 1006681
07:00+25wnw51185100 0.4 1006589
10:00+29wsw7106897 0.0 10071181
13:00+29sw997354 0.8 10051025
16:00+28wsw797978 3.3 1004823
19:00+27wsw5684100 4.9 1006355
22:00+26wsw6887100 2.6 1008393
24 may, tue
tue2401:00+26wnw3688100 4.0 1007345
04:00+25wnw3587100 0.1 1006235
07:00+26w3686100 0.5 1008275
10:00+29w687098 0.0 1009988
13:00+31w7863100 0.2 1006878
16:00+30sw6770100 0.9 1006694
19:00+28sw567994 1.3 1008266
22:00+27wsw4679100 1.1 1009298
25 may, wed
wed2501:00+27w5782100 1.4 1008291
04:00+26w4784100 0.1 1008296
07:00+27w51080100 0.2 1009676
10:00+29wnw91269100 0.0 10091147
13:00+29wnw91270100 0.0 10071107
16:00+28wnw61074100 0.0 1006657
19:00+27w4877100 0.0 1008477
22:00+26wnw51085100 0.0 1008512
26 may, thu
thu2601:00+26w51084100 0.0 1007465
04:00+26wnw5984100 0.0 1006413
07:00+26w4983100 0.9 1008580
10:00+28wnw7976100 0.1 1008778
13:00+30w91166100 0.1 10061024
16:00+28w8137299 0.0 1005911
19:00+27w6107799 0.1 1006801
22:00+26w5982100 0.0 1007545